Regional Weather Roundup
Issued by NWS Goodland, KS

Home | Current Version | Previous Version | Graphics & Text | Print | Product List | Glossary On
Versions: 1 2 3 4 5 6 7 8 9 10 11 12 13 14 15 16 17 18 19 20 21 22 23 24 25 26 27 28 29 30 31 32 33 34 35 36 37 38 39 40 41 42 43 44 45 46 47 48 49 50
000
ASUS43 KGLD 210408
RWRGLD

GOODLAND FORECAST AREA HOURLY WEATHER ROUNDUP
NATIONAL WEATHER SERVICE GOODLAND KS
1000 PM MDT MON OCT 20 2014

...OFFICIAL OBSERVATIONS...

CITY           SKY/WX    TMP DP  RH WIND       PRES   REMARKS
GOODLAND KS    CLEAR     51  39  63 S10       30.12R
HILL CITY KS   CLEAR     56  42  59 CALM      30.09S
IMPERIAL NEB   CLEAR     58  37  45 S12       30.07S
MCCOOK NEB     CLEAR     56  40  55 S7        30.07S
AKRON CO       CLEAR     57  42  57 S14       30.09S
BURLINGTON CO  CLEAR     54  39  57 S12       30.12S
LIMON CO       CLEAR     47  40  76 S7        30.16R
$$

...UNOFFICIAL OBSERVATIONS...

CITY           SKY/WX    TMP DP  RH WIND       PRES   REMARKS
COLBY KS       CLEAR     61  43  51 S12       30.11S
GOVE KS          N/A     54  32  43 MISG        N/A
NORTON KS      CLEAR     55  37  50 S8        30.07S
SHARON SPRINGS   N/A     52  42  70 S9          N/A
TRENTON NEB      N/A     51  32  48 S6          N/A
KIT CARSON CO    N/A     50  41  70 CALM        N/A
YUMA CO          N/A     54  40  59 S12         N/A
$$


USA.gov is the U.S. government's official web portal to all federal, state and local government web resources and services.